Simultaneous Nadir Overpasses (SNOs) Predictions

Prediction of SNOs between LANDSAT-8 and METOP-A Satellite Orbit:

Table of predicted SNOs for the next 14.0 days since TLE Epoch: 1/9/2021
Index Date (LANDSAT-8) Time (LANDSAT-8) Lat,Lon (LANDSAT-8) SZA (LANDSAT-8 ) Date (METOP-A) Time (METOP-A) Lat,Lon (METOP-A) SZA (METOP-A ) Distance(km) Time Diff (sec)
1 01/10/2021 11:44:47 -81.43,-130.89 74.49 01/10/2021 11:44:17 -81.43,-130.85 74.50 0.62 30
2 01/10/2021 12:34:13 81.44, 36.87 105.52 01/10/2021 12:34:57 81.42, 36.77 105.52 2.23 44
3 01/13/2021 07:19:01 -81.43, -64.48 74.98 01/13/2021 07:18:40 -81.43, -64.61 75.00 2.24 21
4 01/13/2021 08:08:28 81.42, 102.86 104.98 01/13/2021 08:09:20 81.43, 102.98 105.02 2.32 52
5 01/16/2021 02:53:14 -81.43, 1.89 75.52 01/16/2021 02:53:01 -81.43, 1.99 75.52 1.58 13
6 01/16/2021 03:42:40 81.43, 169.59 104.48 01/16/2021 03:43:41 81.42, 169.55 104.50 1.27 61
7 01/18/2021 22:27:28 -81.42, 68.23 76.12 01/18/2021 22:27:24 -81.43, 68.16 76.12 1.41 4
8 01/18/2021 23:16:54 81.42,-124.09 103.88 01/18/2021 23:18:03 81.42,-123.90 103.92 3.27 69
9 01/21/2021 17:12:14 81.43, -32.72 103.29 01/21/2021 17:11:05 81.43, -32.67 103.26 1.12 69



Historial Predications of SNOs between LANDSAT-8 and METOP-A
